Flag for U.S.A. Weather past 2 weeks in Detroit, Michigan, U.S.A.

Now
34 °F

Overcast.


Feels Like: 31 °F
Forecast: 16 / 28 °F
Wind: 3 mph from West

Location: Detroit City Airport

Current Time: Feb 1, 2015 at 12:11:12 AM

Latest Report: Jan 31, 2015 at 10:53 PM


Visibility: 10 mi

Pressure: 30.19 "Hg

Humidity: 67%

Dew point: 24 °F

Location of DetroitLocation

Historic Weather in Detroit — Graph

°F

Detroit temperature yesterday

Maximum temperature yesterday: 35 °F (at 6:53 PM)
Minimum temperature yesterday: 15 °F (at 12:53 AM)
Average temperature yesterday: 26 °F

Past Weeks' High & Low Weather Summary

 TemperatureHumidityPressure
High44 °F (Jan 17, 11:53 PM)86% (Jan 18, 10:53 AM)30.93 "Hg (Jan 18, 10:53 AM)
Low11 °F (Jan 26, 6:53 AM)41% (Jan 30, 3:53 PM)28.07 "Hg (Jan 28, 7:53 PM)
Average27 °F68%30.03 "Hg
* Reported Jan 16 10:53 PM — Jan 31 10:53 PM, Detroit, Weather by CustomWeather, © 2014

Note: Actual official high and low records may vary slightly from our data, if they occured in-between our weather recording intervals... More about our weather records

Advertising

Detroit weather history for previous 24 hours

 ConditionsComfort  
Time TempWeatherWind HumidityBarometerVisibility
10:53 PM
Jan 31
34 °FOvercast.3 mph67%30.19 "Hg10 mi
9:53 PM34 °FOvercast.6 mph67%30.20 "Hg10 mi
8:53 PM35 °FOvercast.8 mph61%30.21 "Hg10 mi
7:53 PM35 °FOvercast.7 mph61%30.21 "Hg10 mi
6:53 PM35 °FOvercast.8 mph61%30.21 "Hg10 mi
5:53 PM34 °FOvercast.8 mph61%30.20 "Hg10 mi
4:53 PM34 °FOvercast.10 mph54%30.20 "Hg10 mi
3:53 PM34 °FOvercast.8 mph56%30.20 "Hg10 mi
2:53 PM34 °FPartly sunny.12 mph52%30.23 "Hg10 mi
1:53 PM34 °FSunny.10 mph52%30.23 "Hg10 mi
12:53 PM31 °FSunny.12 mph61%30.24 "Hg10 mi
11:53 AM28 °FSunny.10 mph64%30.27 "Hg10 mi
10:53 AM25 °FPartly sunny.8 mph66%30.30 "Hg10 mi
9:53 AM22 °FOvercast.7 mph72%30.32 "Hg10 mi
8:53 AM20 °FMore clouds than sun.5 mph71%30.33 "Hg10 mi
7:53 AM19 °FScattered clouds.No wind71%30.33 "Hg10 mi
6:53 AM19 °FOvercast.No wind71%30.34 "Hg10 mi
5:53 AM19 °FMostly cloudy.5 mph71%30.35 "Hg10 mi
4:53 AM17 °FOvercast.3 mph70%30.36 "Hg10 mi
3:53 AM17 °FPassing clouds.5 mph68%30.37 "Hg10 mi
2:53 AM15 °FPassing clouds.5 mph67%30.40 "Hg10 mi
1:53 AM16 °FOvercast.8 mph65%30.41 "Hg10 mi
12:53 AM15 °FPartly cloudy.6 mph61%30.42 "Hg10 mi
Weather by CustomWeather, © 2014

See weather overviewHow to use our weather pages